Sedalia, MO

10:34 PM CDT on August 30, 2016 (GMT -0500)
Sedalia Memorial

Weather History for KDMO - November, 2011

Change the Weather History Date:

Saturday, November 12, 2011

  Actual Average Record
Temperature  
Mean Temperature 54 °F 48 °F  
Max Temperature 63 °F 58 °F 79 °F (1999)
Min Temperature 45 °F 39 °F 14 °F (1940)
Degree Days  
Heating Degree Days 11 17  
Month to date heating degree days 149 173  
Since 1 July heating degree days 409 464  
Cooling Degree Days 0 0  
Month to date cooling degree days 0 0  
Year to date cooling degree days 1864 1487  
Growing Degree Days 4 (Base 50)    
Moisture  
Dew Point 37 °F    
Average Humidity 50    
Maximum Humidity 65    
Minimum Humidity 35    
Precipitation  
Precipitation 0.00 in 0.11 in 1.60 in (1992)
Month to date precipitation 4.45 1.34  
Year to date precipitation 26.29 37.03  
Sea Level Pressure  
Sea Level Pressure 29.69 in    
Wind  
Wind Speed 17 mph (South)    
Max Wind Speed 26 mph    
Max Gust Speed 38 mph    
Visibility 10 miles    
Events      
T = Trace of Precipitation, MM = Missing Value Source: NWS Daily Summary

Daily Weather History Graph

Daily Weather History Graph

Search for Another Location

Airport or City:

Trip Planner

Search our weather history database for the weather conditions in past years. The results will help you decide how hot, cold, wet, or windy it might be!

Date:

Astronomy

Nov. 12, 2011 Rise Set
Actual Time 6:51 AM CST 5:01 PM CST
Civil Twilight 6:23 AM CST 5:30 PM CST
Nautical Twilight 5:51 AM CST 6:01 PM CST
Astronomical Twilight 5:19 AM CST 6:33 PM CST
Moon 6:19 PM CST (11/12) 8:33 AM CST (11/12)
Length of Visible Light 11h 06m
Length of Day
10h 10m
Full, 97% of the Moon is Illuminated
Nov 12
Full
Nov 18
Last Quarter
Nov 25
New
Dec 2
First Quarter
Dec 10
Full

Hourly Weather History & Observations

Time (CST) Temp. Windchill Dew Point Humidity Pressure Visibility Wind Dir Wind Speed Gust Speed Precip Events Conditions
12:53 AM 51.1 °F - 33.1 °F 50% 29.83 in 10.0 mi SW 11.5 mph - N/A   Clear
1:53 AM 51.1 °F - 33.1 °F 50% 29.82 in 10.0 mi SSW 12.7 mph - N/A   Clear
2:53 AM 50.0 °F - 32.0 °F 50% 29.81 in 10.0 mi SSW 11.5 mph - N/A   Clear
3:53 AM 50.0 °F - 30.9 °F 48% 29.81 in 10.0 mi SSW 11.5 mph - N/A   Clear
4:53 AM 46.0 °F 40.6 °F 32.0 °F 58% 29.79 in 10.0 mi South 11.5 mph - N/A   Clear
5:53 AM 46.9 °F - 30.9 °F 54% 29.78 in 10.0 mi South 10.4 mph - N/A   Clear
6:53 AM 50.0 °F - 30.0 °F 46% 29.78 in 10.0 mi South 12.7 mph - N/A   Clear
7:53 AM 51.1 °F - 32.0 °F 48% 29.77 in 10.0 mi South 12.7 mph - N/A   Clear
8:53 AM 54.0 °F - 32.0 °F 43% 29.77 in 10.0 mi South 13.8 mph - N/A   Clear
9:53 AM 57.9 °F - 32.0 °F 37% 29.76 in 10.0 mi South 16.1 mph 25.3 mph N/A   Clear
10:53 AM 59.0 °F - 32.0 °F 36% 29.75 in 10.0 mi South 19.6 mph - N/A   Clear
11:53 AM 60.1 °F - 32.0 °F 35% 29.70 in 10.0 mi South 21.9 mph 28.8 mph N/A   Clear
12:53 PM 59.0 °F - 32.0 °F 36% 29.66 in 10.0 mi South 21.9 mph 27.6 mph N/A   Clear
1:53 PM 59.0 °F - 34.0 °F 39% 29.62 in 10.0 mi South 19.6 mph 26.5 mph N/A   Clear
2:53 PM 63.0 °F - 37.0 °F 38% 29.60 in 10.0 mi South 16.1 mph 27.6 mph N/A   Clear
3:53 PM 63.0 °F - 37.9 °F 40% 29.59 in 10.0 mi South 20.7 mph 31.1 mph N/A   Clear
4:53 PM 62.1 °F - 39.9 °F 44% 29.60 in 10.0 mi SSW 20.7 mph 32.2 mph N/A   Clear
5:53 PM 60.1 °F - 42.1 °F 51% 29.61 in 10.0 mi South 15.0 mph - N/A   Clear
6:53 PM 57.9 °F - 43.0 °F 58% 29.60 in 10.0 mi South 16.1 mph 24.2 mph N/A   Clear
7:53 PM 59.0 °F - 46.0 °F 62% 29.60 in 10.0 mi South 18.4 mph 26.5 mph N/A   Clear
8:53 PM 59.0 °F - 46.9 °F 64% 29.60 in 10.0 mi SSW 18.4 mph 25.3 mph N/A   Clear
9:53 PM 61.0 °F - 48.9 °F 64% 29.57 in 10.0 mi SSW 25.3 mph 35.7 mph N/A   Clear
10:53 PM 63.0 °F - 50.0 °F 63% 29.55 in 10.0 mi SSW 24.2 mph 38.0 mph N/A   Clear
11:53 PM 63.0 °F - 50.0 °F 63% 29.55 in 10.0 mi SSW 23.0 mph 35.7 mph N/A   Clear